Time,TemperatureF,DewpointF,PressureIn,WindDirection,WindDirectionDegrees,WindSpeedMPH,WindSpeedGustMPH,Humidity,HourlyPrecipIn,Conditions,Clouds,dailyrainin,SolarRadiationWatts/m^2,SoftwareType,DateUTC
2013-01-29 00:05:00,60.6,57.7,29.71,SE,135,3.0,4.0,90,0.00,,,0.00,0000,Weather View 32 v70,2013-01-29 06:05:00,
2013-01-29 00:14:00,60.6,57.7,29.71,SE,135,3.0,4.0,90,0.00,,,0.00,0000,Weather View 32 v70,2013-01-29 06:14:00,
2013-01-29 00:19:00,60.6,57.7,29.71,ESE,112,3.0,4.0,90,0.00,,,0.00,0000,Weather View 32 v70,2013-01-29 06:19:00,
2013-01-29 00:25:00,60.6,57.7,29.69,South,180,3.0,4.0,90,0.00,,,0.00,0000,Weather View 32 v70,2013-01-29 06:25:00,
2013-01-29 00:30:00,60.8,57.8,29.69,South,180,3.0,4.0,90,0.00,,,0.00,0000,Weather View 32 v70,2013-01-29 06:30:00,
2013-01-29 00:39:00,60.8,57.8,29.69,ESE,112,4.0,4.0,90,0.00,,,0.00,0000,Weather View 32 v70,2013-01-29 06:39:00,
2013-01-29 00:44:00,61.0,58.0,29.69,ESE,112,4.0,4.0,90,0.00,,,0.00,0000,Weather View 32 v70,2013-01-29 06:44:00,
2013-01-29 00:49:00,61.0,58.0,29.68,South,180,4.0,4.0,90,0.00,,,0.00,0000,Weather View 32 v70,2013-01-29 06:49:00,
2013-01-29 00:55:00,60.8,57.8,29.68,SSE,158,3.0,4.0,90,0.00,,,0.00,0000,Weather View 32 v70,2013-01-29 06:55:00,
2013-01-29 01:04:00,61.0,58.0,29.68,SE,135,3.0,4.0,90,0.00,,,0.00,0000,Weather View 32 v70,2013-01-29 07:04:00,
2013-01-29 01:10:00,61.0,58.0,29.68,South,180,3.0,4.0,90,0.00,,,0.00,0000,Weather View 32 v70,2013-01-29 07:10:00,
2013-01-29 01:20:00,61.3,58.1,29.68,SSW,202,3.0,4.0,89,0.00,,,0.00,0000,Weather View 32 v70,2013-01-29 07:20:00,
2013-01-29 01:25:00,61.2,57.9,29.67,SSE,158,3.0,4.0,89,0.00,,,0.00,0000,Weather View 32 v70,2013-01-29 07:25:00,
2013-01-29 01:34:00,61.3,58.1,29.67,SSE,158,4.0,4.0,89,0.00,,,0.00,0000,Weather View 32 v70,2013-01-29 07:34:00,
2013-01-29 01:39:00,61.3,58.1,29.67,SSE,158,3.0,4.0,89,0.00,,,0.00,0000,Weather View 32 v70,2013-01-29 07:39:00,
2013-01-29 01:45:00,61.7,58.4,29.67,SE,135,3.0,4.0,89,0.00,,,0.00,0000,Weather View 32 v70,2013-01-29 07:45:00,
2013-01-29 01:50:00,61.5,57.9,29.67,SSE,158,4.0,4.0,88,0.00,,,0.00,0000,Weather View 32 v70,2013-01-29 07:50:00,
2013-01-29 01:59:00,61.7,58.4,29.67,SSE,158,4.0,4.0,89,0.00,,,0.00,0000,Weather View 32 v70,2013-01-29 07:59:00,
2013-01-29 02:04:00,61.7,58.1,29.66,South,180,4.0,4.0,88,0.00,,,0.00,0000,Weather View 32 v70,2013-01-29 08:04:00,
2013-01-29 02:10:00,61.7,58.1,29.66,SSE,158,4.0,4.0,88,0.00,,,0.00,0000,Weather View 32 v70,2013-01-29 08:10:00,
2013-01-29 02:15:00,61.9,58.3,29.66,SSE,158,4.0,4.0,88,0.00,,,0.00,0000,Weather View 32 v70,2013-01-29 08:15:00,
2013-01-29 02:24:00,62.1,58.5,29.66,SSE,158,4.0,4.0,88,0.00,,,0.00,0000,Weather View 32 v70,2013-01-29 08:24:00,
2013-01-29 02:29:00,62.1,58.5,29.66,SE,135,3.0,4.0,88,0.00,,,0.00,0000,Weather View 32 v70,2013-01-29 08:29:00,
2013-01-29 02:35:00,62.1,58.1,29.66,ESE,112,4.0,4.0,87,0.00,,,0.00,0000,Weather View 32 v70,2013-01-29 08:35:00,
2013-01-29 02:40:00,62.2,58.3,29.66,ESE,112,4.0,4.0,87,0.00,,,0.00,0000,Weather View 32 v70,2013-01-29 08:40:00,
2013-01-29 02:49:00,62.2,58.3,29.65,ESE,112,4.0,4.0,87,0.00,,,0.00,0000,Weather View 32 v70,2013-01-29 08:49:00,
2013-01-29 02:54:00,62.2,58.3,29.65,South,180,3.0,4.0,87,0.00,,,0.00,0000,Weather View 32 v70,2013-01-29 08:54:00,
2013-01-29 02:59:00,62.2,58.3,29.65,SSE,158,3.0,4.0,87,0.00,,,0.00,0000,Weather View 32 v70,2013-01-29 08:59:00,
2013-01-29 03:05:00,62.2,58.3,29.65,ESE,112,4.0,4.0,87,0.00,,,0.00,0000,Weather View 32 v70,2013-01-29 09:05:00,
2013-01-29 03:11:00,62.2,58.3,29.65,SSE,158,4.0,4.0,87,0.00,,,0.00,0000,Weather View 32 v70,2013-01-29 09:11:00,
2013-01-29 03:19:00,61.9,58.0,29.65,ESE,112,3.0,4.0,87,0.00,,,0.00,0000,Weather View 32 v70,2013-01-29 09:19:00,
2013-01-29 03:24:00,62.1,58.1,29.64,East,90,3.0,4.0,87,0.00,,,0.00,0000,Weather View 32 v70,2013-01-29 09:24:00,
2013-01-29 03:30:00,62.1,58.1,29.64,SSE,158,4.0,4.0,87,0.00,,,0.00,0000,Weather View 32 v70,2013-01-29 09:30:00,
2013-01-29 03:35:00,62.1,58.1,29.64,SW,225,3.0,4.0,87,0.00,,,0.00,0000,Weather View 32 v70,2013-01-29 09:35:00,
2013-01-29 03:44:00,62.1,58.1,29.64,SE,135,3.0,4.0,87,0.00,,,0.00,0000,Weather View 32 v70,2013-01-29 09:44:00,
2013-01-29 03:49:00,62.1,58.1,29.64,SSE,158,3.0,4.0,87,0.00,,,0.00,0000,Weather View 32 v70,2013-01-29 09:49:00,
2013-01-29 03:55:00,62.2,58.3,29.64,SSE,158,3.0,4.0,87,0.00,,,0.00,0000,Weather View 32 v70,2013-01-29 09:55:00,
2013-01-29 04:00:00,62.1,58.1,29.64,NNE,22,3.0,4.0,87,0.00,,,0.00,0000,Weather View 32 v70,2013-01-29 10:00:00,
2013-01-29 04:09:00,62.1,58.1,29.63,SE,135,3.0,4.0,87,0.00,,,0.00,0000,Weather View 32 v70,2013-01-29 10:09:00,
2013-01-29 04:14:00,62.1,58.1,29.63,SSE,158,3.0,4.0,87,0.00,,,0.00,0000,Weather View 32 v70,2013-01-29 10:14:00,
2013-01-29 04:20:00,62.1,58.1,29.63,SSE,158,3.0,4.0,87,0.00,,,0.00,0000,Weather View 32 v70,2013-01-29 10:20:00,
2013-01-29 04:25:00,62.1,58.1,29.63,SSE,158,2.0,4.0,87,0.00,,,0.00,0000,Weather View 32 v70,2013-01-29 10:25:00,
2013-01-29 04:34:00,62.2,58.3,29.63,SE,135,3.0,3.0,87,0.00,,,0.00,0000,Weather View 32 v70,2013-01-29 10:34:00,
2013-01-29 04:39:00,62.2,58.3,29.63,SSE,158,3.0,3.0,87,0.00,,,0.00,0000,Weather View 32 v70,2013-01-29 10:39:00,
2013-01-29 04:45:00,62.2,58.3,29.63,SSE,158,3.0,3.0,87,0.00,,,0.00,0000,Weather View 32 v70,2013-01-29 10:45:00,
2013-01-29 04:50:00,62.4,58.5,29.63,ESE,112,2.0,3.0,87,0.00,,,0.00,0000,Weather View 32 v70,2013-01-29 10:50:00,
2013-01-29 04:59:00,62.4,58.5,29.63,ESE,112,2.0,3.0,87,0.00,,,0.00,0000,Weather View 32 v70,2013-01-29 10:59:00,
2013-01-29 05:04:00,62.2,58.3,29.63,SSE,158,2.0,3.0,87,0.00,,,0.00,0000,Weather View 32 v70,2013-01-29 11:04:00,
2013-01-29 05:09:00,62.2,58.3,29.63,SSE,158,3.0,3.0,87,0.00,,,0.00,0000,Weather View 32 v70,2013-01-29 11:09:00,
2013-01-29 05:15:00,62.2,58.3,29.63,ESE,112,3.0,3.0,87,0.00,,,0.00,0000,Weather View 32 v70,2013-01-29 11:15:00,
2013-01-29 05:24:00,62.2,58.3,29.63,SSE,158,4.0,4.0,87,0.00,,,0.00,0000,Weather View 32 v70,2013-01-29 11:24:00,
2013-01-29 05:29:00,62.4,58.5,29.63,South,180,3.0,4.0,87,0.00,,,0.00,0000,Weather View 32 v70,2013-01-29 11:29:00,
2013-01-29 05:35:00,62.2,58.3,29.63,South,180,3.0,4.0,87,0.00,,,0.00,0000,Weather View 32 v70,2013-01-29 11:35:00,
2013-01-29 05:44:00,62.4,58.5,29.62,South,180,3.0,4.0,87,0.00,,,0.00,0000,Weather View 32 v70,2013-01-29 11:44:00,
2013-01-29 05:49:00,62.4,58.5,29.62,SE,135,3.0,4.0,87,0.00,,,0.00,0000,Weather View 32 v70,2013-01-29 11:49:00,
2013-01-29 05:54:00,62.6,58.3,29.62,SSE,158,2.0,4.0,86,0.00,,,0.00,0000,Weather View 32 v70,2013-01-29 11:54:00,
2013-01-29 06:00:00,62.6,58.3,29.62,ESE,112,3.0,4.0,86,0.00,,,0.00,0000,Weather View 32 v70,2013-01-29 12:00:00,
2013-01-29 06:05:00,62.8,58.5,29.62,ESE,112,3.0,4.0,86,0.00,,,0.00,0000,Weather View 32 v70,2013-01-29 12:05:00,
2013-01-29 06:12:00,62.8,58.5,29.62,SSE,158,3.0,4.0,86,0.00,,,0.00,0000,Weather View 32 v70,2013-01-29 12:12:00,
2013-01-29 06:19:00,62.8,58.5,29.62,SSW,202,4.0,4.0,86,0.00,,,0.00,0000,Weather View 32 v70,2013-01-29 12:19:00,
2013-01-29 06:25:00,62.8,58.5,29.62,ESE,112,3.0,4.0,86,0.00,,,0.00,0000,Weather View 32 v70,2013-01-29 12:25:00,
2013-01-29 06:30:00,62.8,58.5,29.62,ESE,112,3.0,4.0,86,0.00,,,0.00,0000,Weather View 32 v70,2013-01-29 12:30:00,
2013-01-29 06:39:00,62.6,58.3,29.62,South,180,4.0,4.0,86,0.00,,,0.00,0000,Weather View 32 v70,2013-01-29 12:39:00,
2013-01-29 06:44:00,62.4,58.2,29.62,SSE,158,3.0,4.0,86,0.00,,,0.00,0000,Weather View 32 v70,2013-01-29 12:44:00,
2013-01-29 06:50:00,62.6,58.3,29.62,East,90,2.0,4.0,86,0.00,,,0.00,0000,Weather View 32 v70,2013-01-29 12:50:00,
2013-01-29 06:55:00,62.8,58.5,29.62,East,90,3.0,4.0,86,0.00,,,0.00,0000,Weather View 32 v70,2013-01-29 12:55:00,
2013-01-29 07:04:00,62.4,58.2,29.62,SSW,202,2.0,4.0,86,0.00,,,0.00,0000,Weather View 32 v70,2013-01-29 13:04:00,
2013-01-29 07:09:00,62.4,58.2,29.61,South,180,3.0,4.0,86,0.00,,,0.00,0000,Weather View 32 v70,2013-01-29 13:09:00,
2013-01-29 07:14:00,62.4,58.2,29.61,SSE,158,3.0,4.0,86,0.00,,,0.00,0000,Weather View 32 v70,2013-01-29 13:14:00,
2013-01-29 07:20:00,62.4,58.2,29.61,SSE,158,3.0,4.0,86,0.00,,,0.00,0000,Weather View 32 v70,2013-01-29 13:20:00,
2013-01-29 07:29:00,62.4,58.2,29.61,SE,135,3.0,4.0,86,0.00,,,0.00,0000,Weather View 32 v70,2013-01-29 13:29:00,
2013-01-29 07:34:00,62.8,58.5,29.61,SSE,158,3.0,4.0,86,0.00,,,0.00,0000,Weather View 32 v70,2013-01-29 13:34:00,
2013-01-29 07:39:00,62.6,58.3,29.61,SSE,158,3.0,4.0,86,0.00,,,0.00,0000,Weather View 32 v70,2013-01-29 13:39:00,
2013-01-29 07:45:00,62.8,58.5,29.60,SE,135,3.0,3.0,86,0.00,,,0.00,0000,Weather View 32 v70,2013-01-29 13:45:00,
2013-01-29 07:50:00,62.8,58.5,29.60,South,180,3.0,3.0,86,0.00,,,0.00,0000,Weather View 32 v70,2013-01-29 13:50:00,
2013-01-29 07:59:00,63.1,58.9,29.60,SSE,158,3.0,3.0,86,0.00,,,0.00,0000,Weather View 32 v70,2013-01-29 13:59:00,
2013-01-29 08:04:00,63.1,58.9,29.61,ESE,112,3.0,3.0,86,0.00,,,0.00,0000,Weather View 32 v70,2013-01-29 14:04:00,
2013-01-29 08:10:00,63.3,58.7,29.61,ESE,112,3.0,3.0,85,0.00,,,0.00,0000,Weather View 32 v70,2013-01-29 14:10:00,
2013-01-29 08:19:00,63.5,58.9,29.61,ESE,112,3.0,4.0,85,0.00,,,0.00,0000,Weather View 32 v70,2013-01-29 14:19:00,
2013-01-29 08:24:00,63.7,59.1,29.60,South,180,3.0,4.0,85,0.00,,,0.00,0000,Weather View 32 v70,2013-01-29 14:24:00,
2013-01-29 08:29:00,63.9,59.2,29.60,ESE,112,3.0,4.0,85,0.00,,,0.00,0000,Weather View 32 v70,2013-01-29 14:29:00,
2013-01-29 08:35:00,63.9,59.2,29.60,South,180,3.0,4.0,85,0.00,,,0.00,0000,Weather View 32 v70,2013-01-29 14:35:00,
2013-01-29 08:40:00,64.0,59.4,29.60,SE,135,4.0,4.0,85,0.00,,,0.00,0000,Weather View 32 v70,2013-01-29 14:40:00,
2013-01-29 08:49:00,64.2,59.3,29.59,South,180,4.0,4.0,84,0.00,,,0.00,0000,Weather View 32 v70,2013-01-29 14:49:00,
2013-01-29 08:54:00,64.0,59.1,29.59,ESE,112,4.0,4.0,84,0.00,,,0.00,0000,Weather View 32 v70,2013-01-29 14:54:00,
2013-01-29 09:00:00,64.2,59.3,29.59,ESE,112,3.0,4.0,84,0.00,,,0.00,0000,Weather View 32 v70,2013-01-29 15:00:00,
2013-01-29 09:05:00,64.2,59.3,29.59,SSW,202,3.0,4.0,84,0.00,,,0.00,0000,Weather View 32 v70,2013-01-29 15:05:00,
2013-01-29 09:14:00,64.2,59.3,29.59,SSE,158,3.0,4.0,84,0.00,,,0.00,0000,Weather View 32 v70,2013-01-29 15:14:00,
2013-01-29 09:19:00,64.6,59.3,29.59,SSE,158,4.0,4.0,83,0.00,,,0.00,0000,Weather View 32 v70,2013-01-29 15:19:00,
2013-01-29 09:25:00,64.4,59.1,29.59,SSE,158,3.0,4.0,83,0.00,,,0.00,0000,Weather View 32 v70,2013-01-29 15:25:00,
2013-01-29 09:30:00,64.4,59.1,29.59,ESE,112,3.0,4.0,83,0.00,,,0.00,0000,Weather View 32 v70,2013-01-29 15:30:00,
2013-01-29 09:39:00,64.9,59.6,29.59,SE,135,3.0,4.0,83,0.00,,,0.00,0000,Weather View 32 v70,2013-01-29 15:39:00,
2013-01-29 09:44:00,64.9,59.6,29.57,SE,135,3.0,4.0,83,0.00,,,0.00,0000,Weather View 32 v70,2013-01-29 15:44:00,
2013-01-29 09:49:00,65.1,59.8,29.57,South,180,3.0,4.0,83,0.00,,,0.00,0000,Weather View 32 v70,2013-01-29 15:49:00,
2013-01-29 09:55:00,65.1,59.5,29.57,SSW,202,3.0,4.0,82,0.00,,,0.00,0000,Weather View 32 v70,2013-01-29 15:55:00,
2013-01-29 10:04:00,65.1,59.5,29.57,ESE,112,4.0,4.0,82,0.00,,,0.00,0000,Weather View 32 v70,2013-01-29 16:04:00,
2013-01-29 10:09:00,64.9,59.3,29.57,SE,135,3.0,4.0,82,0.00,,,0.00,0000,Weather View 32 v70,2013-01-29 16:09:00,
2013-01-29 10:14:00,64.9,59.3,29.57,SE,135,3.0,4.0,82,0.00,,,0.00,0000,Weather View 32 v70,2013-01-29 16:14:00,
2013-01-29 10:20:00,64.9,59.3,29.57,SSE,158,4.0,4.0,82,0.00,,,0.00,0000,Weather View 32 v70,2013-01-29 16:20:00,
2013-01-29 10:25:00,64.9,59.3,29.56,SW,225,4.0,4.0,82,0.00,,,0.00,0000,Weather View 32 v70,2013-01-29 16:25:00,
2013-01-29 10:34:00,64.8,59.1,29.56,South,180,4.0,4.0,82,0.00,,,0.00,0000,Weather View 32 v70,2013-01-29 16:34:00,
2013-01-29 10:39:00,64.8,59.1,29.56,ESE,112,5.0,5.0,82,0.00,,,0.00,0000,Weather View 32 v70,2013-01-29 16:39:00,
2013-01-29 10:44:00,64.9,59.3,29.56,South,180,5.0,5.0,82,0.00,,,0.00,0000,Weather View 32 v70,2013-01-29 16:44:00,
2013-01-29 10:50:00,64.6,58.9,29.56,SSE,158,3.0,5.0,82,0.00,,,0.00,0000,Weather View 32 v70,2013-01-29 16:50:00,
2013-01-29 10:55:00,64.6,58.9,29.56,SE,135,3.0,5.0,82,0.00,,,0.00,0000,Weather View 32 v70,2013-01-29 16:55:00,
2013-01-29 11:04:00,64.4,58.8,29.56,ESE,112,4.0,5.0,82,0.00,,,0.00,0000,Weather View 32 v70,2013-01-29 17:04:00,
2013-01-29 11:09:00,64.4,59.1,29.56,ESE,112,4.0,5.0,83,0.00,,,0.00,0000,Weather View 32 v70,2013-01-29 17:09:00,
2013-01-29 11:15:00,64.6,59.3,29.56,SSE,158,4.0,5.0,83,0.00,,,0.00,0000,Weather View 32 v70,2013-01-29 17:15:00,
2013-01-29 11:24:00,64.2,59.3,29.54,East,90,3.0,5.0,84,0.00,,,0.00,0000,Weather View 32 v70,2013-01-29 17:24:00,
2013-01-29 11:29:00,63.9,58.9,29.54,SSE,158,2.0,5.0,84,0.00,,,0.00,0000,Weather View 32 v70,2013-01-29 17:29:00,
2013-01-29 11:34:00,63.9,59.2,29.54,South,180,2.0,5.0,85,0.00,,,0.00,0000,Weather View 32 v70,2013-01-29 17:34:00,
2013-01-29 11:39:00,63.7,59.1,29.54,SE,135,3.0,5.0,85,0.00,,,0.00,0000,Weather View 32 v70,2013-01-29 17:39:00,
2013-01-29 11:45:00,63.5,58.9,29.54,SSW,202,2.0,5.0,85,0.00,,,0.00,0000,Weather View 32 v70,2013-01-29 17:45:00,
2013-01-29 11:54:00,63.3,59.0,29.54,ESE,112,3.0,4.0,86,0.00,,,0.00,0000,Weather View 32 v70,2013-01-29 17:54:00,
2013-01-29 11:59:00,63.1,58.9,29.54,SSE,158,3.0,4.0,86,0.00,,,0.00,0000,Weather View 32 v70,2013-01-29 17:59:00,
2013-01-29 12:04:00,63.1,58.9,29.52,SSE,158,3.0,4.0,86,0.00,,,0.00,0000,Weather View 32 v70,2013-01-29 18:04:00,
2013-01-29 12:09:00,63.1,58.9,29.52,SSE,158,3.0,4.0,86,0.00,,,0.00,0000,Weather View 32 v70,2013-01-29 18:09:00,
2013-01-29 12:15:00,63.0,59.0,29.52,South,180,2.0,4.0,87,0.00,,,0.00,0000,Weather View 32 v70,2013-01-29 18:15:00,
2013-01-29 12:24:00,62.8,58.8,29.50,ESE,112,3.0,3.0,87,0.00,,,0.00,0000,Weather View 32 v70,2013-01-29 18:24:00,
2013-01-29 12:29:00,62.8,58.8,29.50,SSE,158,3.0,3.0,87,0.00,,,0.00,0000,Weather View 32 v70,2013-01-29 18:29:00,
2013-01-29 12:34:00,62.6,58.7,29.50,ESE,112,3.0,3.0,87,0.00,,,0.00,0000,Weather View 32 v70,2013-01-29 18:34:00,
2013-01-29 12:40:00,62.6,59.0,29.50,SSE,158,3.0,3.0,88,0.00,,,0.00,0000,Weather View 32 v70,2013-01-29 18:40:00,
2013-01-29 12:49:00,62.8,58.8,29.48,South,180,2.0,3.0,87,0.00,,,0.00,0000,Weather View 32 v70,2013-01-29 18:49:00,
2013-01-29 12:54:00,62.8,59.2,29.48,SSE,158,3.0,3.0,88,0.00,,,0.00,0000,Weather View 32 v70,2013-01-29 18:54:00,
2013-01-29 13:00:00,62.8,59.2,29.48,SSE,158,3.0,3.0,88,0.00,,,0.00,0000,Weather View 32 v70,2013-01-29 19:00:00,
2013-01-29 13:05:00,63.0,59.0,29.46,ESE,112,3.0,3.0,87,0.00,,,0.00,0000,Weather View 32 v70,2013-01-29 19:05:00,
2013-01-29 13:14:00,63.3,59.0,29.46,NNE,22,3.0,3.0,86,0.00,,,0.00,0000,Weather View 32 v70,2013-01-29 19:14:00,
2013-01-29 13:19:00,63.5,59.2,29.46,ESE,112,3.0,3.0,86,0.00,,,0.00,0000,Weather View 32 v70,2013-01-29 19:19:00,
2013-01-29 13:25:00,63.5,59.2,29.43,East,90,4.0,4.0,86,0.00,,,0.00,0000,Weather View 32 v70,2013-01-29 19:25:00,
2013-01-29 13:30:00,63.7,59.4,29.43,ESE,112,4.0,4.0,86,0.00,,,0.00,0000,Weather View 32 v70,2013-01-29 19:30:00,
2013-01-29 13:39:00,63.9,59.2,29.43,SSE,158,4.0,4.0,85,0.00,,,0.00,0000,Weather View 32 v70,2013-01-29 19:39:00,
2013-01-29 13:44:00,63.9,59.2,29.42,SE,135,4.0,4.0,85,0.00,,,0.00,0000,Weather View 32 v70,2013-01-29 19:44:00,
2013-01-29 13:49:00,64.0,59.4,29.42,ESE,112,4.0,4.0,85,0.00,,,0.00,0000,Weather View 32 v70,2013-01-29 19:49:00,
2013-01-29 13:55:00,64.2,59.3,29.42,SSW,202,4.0,4.0,84,0.00,,,0.00,0000,Weather View 32 v70,2013-01-29 19:55:00,
2013-01-29 14:04:00,64.4,59.4,29.41,SSW,202,4.0,4.0,84,0.00,,,0.00,0000,Weather View 32 v70,2013-01-29 20:04:00,
2013-01-29 14:09:00,64.2,59.3,29.41,ESE,112,4.0,4.0,84,0.00,,,0.00,0000,Weather View 32 v70,2013-01-29 20:09:00,
2013-01-29 14:14:00,64.2,58.9,29.41,SSE,158,4.0,4.0,83,0.00,,,0.00,0000,Weather View 32 v70,2013-01-29 20:14:00,
2013-01-29 14:20:00,64.2,58.9,29.41,SE,135,4.0,4.0,83,0.00,,,0.00,0000,Weather View 32 v70,2013-01-29 20:20:00,
2013-01-29 14:29:00,63.9,58.9,29.40,ESE,112,3.0,4.0,84,0.00,,,0.00,0000,Weather View 32 v70,2013-01-29 20:29:00,
2013-01-29 14:34:00,63.9,58.9,29.40,South,180,3.0,4.0,84,0.00,,,0.00,0000,Weather View 32 v70,2013-01-29 20:34:00,
2013-01-29 14:39:00,63.9,58.9,29.40,SSE,158,3.0,4.0,84,0.00,,,0.00,0000,Weather View 32 v70,2013-01-29 20:39:00,
2013-01-29 14:44:00,64.0,59.1,29.40,SSE,158,4.0,4.0,84,0.00,,,0.00,0000,Weather View 32 v70,2013-01-29 20:44:00,
2013-01-29 14:50:00,64.2,58.9,29.40,South,180,3.0,4.0,83,0.00,,,0.00,0000,Weather View 32 v70,2013-01-29 20:50:00,
2013-01-29 14:59:00,64.2,58.9,29.40,ESE,112,3.0,4.0,83,0.00,,,0.00,0000,Weather View 32 v70,2013-01-29 20:59:00,
2013-01-29 15:04:00,64.4,59.1,29.40,SE,135,3.0,4.0,83,0.00,,,0.00,0000,Weather View 32 v70,2013-01-29 21:04:00,
2013-01-29 15:09:00,64.6,59.3,29.40,SE,135,4.0,4.0,83,0.00,,,0.00,0000,Weather View 32 v70,2013-01-29 21:09:00,
2013-01-29 15:15:00,64.9,59.3,29.40,West,270,5.0,5.0,82,0.00,,,0.00,0000,Weather View 32 v70,2013-01-29 21:15:00,
2013-01-29 15:24:00,64.9,59.3,29.38,South,180,4.0,5.0,82,0.00,,,0.00,0000,Weather View 32 v70,2013-01-29 21:24:00,
2013-01-29 15:29:00,64.9,59.3,29.38,SSE,158,4.0,5.0,82,0.00,,,0.00,0000,Weather View 32 v70,2013-01-29 21:29:00,
2013-01-29 15:34:00,65.1,59.5,29.38,SE,135,4.0,5.0,82,0.00,,,0.00,0000,Weather View 32 v70,2013-01-29 21:34:00,
2013-01-29 15:39:00,65.3,59.3,29.38,South,180,4.0,5.0,81,0.00,,,0.00,0000,Weather View 32 v70,2013-01-29 21:39:00,
2013-01-29 15:45:00,65.1,59.1,29.37,South,180,4.0,5.0,81,0.00,,,0.00,0000,Weather View 32 v70,2013-01-29 21:45:00,
2013-01-29 15:54:00,65.1,59.1,29.37,South,180,4.0,5.0,81,0.00,,,0.00,0000,Weather View 32 v70,2013-01-29 21:54:00,
2013-01-29 15:59:00,65.1,59.1,29.37,ESE,112,4.0,5.0,81,0.00,,,0.00,0000,Weather View 32 v70,2013-01-29 21:59:00,
2013-01-29 16:04:00,65.3,59.0,29.35,NNE,22,5.0,5.0,80,0.00,,,0.00,0000,Weather View 32 v70,2013-01-29 22:04:00,
2013-01-29 16:10:00,65.1,58.8,29.35,East,90,5.0,5.0,80,0.00,,,0.00,0000,Weather View 32 v70,2013-01-29 22:10:00,
2013-01-29 16:15:00,65.1,58.8,29.35,SW,225,4.0,5.0,80,0.00,,,0.00,0000,Weather View 32 v70,2013-01-29 22:15:00,
2013-01-29 16:24:00,65.3,59.0,29.34,SE,135,5.0,5.0,80,0.00,,,0.00,0000,Weather View 32 v70,2013-01-29 22:24:00,
2013-01-29 16:29:00,65.3,59.0,29.34,SSW,202,5.0,5.0,80,0.00,,,0.00,0000,Weather View 32 v70,2013-01-29 22:29:00,
2013-01-29 16:34:00,63.5,56.1,29.34,SW,225,6.0,6.0,77,0.00,,,0.00,0000,Weather View 32 v70,2013-01-29 22:34:00,
2013-01-29 16:40:00,62.4,55.5,29.34,South,180,6.0,7.0,78,0.00,,,0.00,0000,Weather View 32 v70,2013-01-29 22:40:00,
2013-01-29 16:49:00,60.1,54.2,29.40,West,270,3.0,7.0,81,0.00,,,0.00,0000,Weather View 32 v70,2013-01-29 22:49:00,
2013-01-29 16:54:00,59.2,54.0,29.40,SW,225,3.0,7.0,83,0.00,,,0.00,0000,Weather View 32 v70,2013-01-29 22:54:00,
2013-01-29 16:59:00,59.2,54.0,29.40,SE,135,3.0,7.0,83,0.00,,,0.00,0000,Weather View 32 v70,2013-01-29 22:59:00,
2013-01-29 17:05:00,58.5,53.6,29.38,SSW,202,2.0,7.0,84,0.00,,,0.00,0000,Weather View 32 v70,2013-01-29 23:05:00,
2013-01-29 17:14:00,57.7,53.2,29.38,SSW,202,3.0,7.0,85,0.00,,,0.00,0000,Weather View 32 v70,2013-01-29 23:14:00,
2013-01-29 17:19:00,57.6,53.4,29.38,NNE,22,3.0,7.0,86,0.00,,,0.00,0000,Weather View 32 v70,2013-01-29 23:19:00,
2013-01-29 17:24:00,57.2,53.0,29.43,SSW,202,2.0,7.0,86,0.00,,,0.00,0000,Weather View 32 v70,2013-01-29 23:24:00,
2013-01-29 17:30:00,57.2,53.0,29.43,WSW,248,2.0,7.0,86,0.00,,,0.00,0000,Weather View 32 v70,2013-01-29 23:30:00,
2013-01-29 17:39:00,56.8,53.0,29.43,South,180,2.0,6.0,87,0.00,,,0.00,0000,Weather View 32 v70,2013-01-29 23:39:00,
2013-01-29 17:44:00,56.5,52.6,29.40,North,0,2.0,5.0,87,0.00,,,0.00,0000,Weather View 32 v70,2013-01-29 23:44:00,
2013-01-29 17:49:00,56.5,52.6,29.40,WNW,292,2.0,3.0,87,0.00,,,0.00,0000,Weather View 32 v70,2013-01-29 23:49:00,
2013-01-29 17:55:00,56.3,52.8,29.40,NW,315,2.0,3.0,88,0.00,,,0.00,0000,Weather View 32 v70,2013-01-29 23:55:00,
2013-01-29 18:04:00,56.3,52.8,29.39,North,0,2.0,3.0,88,0.00,,,0.00,0000,Weather View 32 v70,2013-01-30 00:04:00,
2013-01-29 18:09:00,56.3,52.8,29.39,NW,315,2.0,3.0,88,0.00,,,0.00,0000,Weather View 32 v70,2013-01-30 00:09:00,
2013-01-29 18:14:00,55.9,52.4,29.39,WNW,292,2.0,3.0,88,0.00,,,0.00,0000,Weather View 32 v70,2013-01-30 00:14:00,
2013-01-29 18:20:00,55.8,52.3,29.39,North,0,2.0,3.0,88,0.00,,,0.00,0000,Weather View 32 v70,2013-01-30 00:20:00,
2013-01-29 18:29:00,55.6,52.4,29.38,NNW,338,2.0,2.0,89,0.00,,,0.00,0000,Weather View 32 v70,2013-01-30 00:29:00,
2013-01-29 18:34:00,55.6,52.4,29.38,North,0,3.0,3.0,89,0.00,,,0.00,0000,Weather View 32 v70,2013-01-30 00:34:00,
2013-01-29 18:39:00,55.6,52.4,29.38,West,270,2.0,3.0,89,0.00,,,0.00,0000,Weather View 32 v70,2013-01-30 00:39:00,
2013-01-29 18:44:00,55.6,52.7,29.38,North,0,1.0,3.0,90,0.00,,,0.00,0000,Weather View 32 v70,2013-01-30 00:44:00,
2013-01-29 18:49:00,55.6,52.7,29.37,NW,315,1.0,3.0,90,0.00,,,0.00,0000,Weather View 32 v70,2013-01-30 00:49:00,
2013-01-29 18:55:00,55.6,52.7,29.37,NW,315,1.0,3.0,90,0.00,,,0.00,0000,Weather View 32 v70,2013-01-30 00:55:00,
2013-01-29 19:04:00,55.2,52.3,29.37,WNW,292,1.0,3.0,90,0.00,,,0.00,0000,Weather View 32 v70,2013-01-30 01:04:00,
2013-01-29 19:09:00,55.4,52.5,29.37,SW,225,1.0,3.0,90,0.00,,,0.00,0000,Weather View 32 v70,2013-01-30 01:09:00,
2013-01-29 19:14:00,55.4,52.5,29.37,South,180,1.0,3.0,90,0.00,,,0.00,0000,Weather View 32 v70,2013-01-30 01:14:00,
2013-01-29 19:19:00,55.4,52.8,29.37,SW,225,1.0,3.0,91,0.00,,,0.00,0000,Weather View 32 v70,2013-01-30 01:19:00,
2013-01-29 19:25:00,55.4,52.8,29.40,South,180,0.0,3.0,91,0.00,,,0.00,0000,Weather View 32 v70,2013-01-30 01:25:00,
2013-01-29 19:34:00,55.2,52.6,29.40,NW,315,1.0,3.0,91,0.00,,,0.00,0000,Weather View 32 v70,2013-01-30 01:34:00,
2013-01-29 19:39:00,55.0,52.5,29.40,SE,135,2.0,2.0,91,0.00,,,0.00,0000,Weather View 32 v70,2013-01-30 01:39:00,
2013-01-29 19:44:00,55.2,52.6,29.41,SW,225,2.0,2.0,91,0.00,,,0.00,0000,Weather View 32 v70,2013-01-30 01:44:00,
2013-01-29 19:49:00,55.0,52.5,29.41,WNW,292,1.0,2.0,91,0.00,,,0.00,0000,Weather View 32 v70,2013-01-30 01:49:00,
2013-01-29 19:55:00,55.0,52.5,29.41,West,270,1.0,2.0,91,0.00,,,0.00,0000,Weather View 32 v70,2013-01-30 01:55:00,
2013-01-29 20:04:00,55.0,52.5,29.42,SSW,202,0.0,2.0,91,0.00,,,0.00,0000,Weather View 32 v70,2013-01-30 02:04:00,
2013-01-29 20:09:00,55.0,52.5,29.42,NNW,338,0.0,2.0,91,0.00,,,0.00,0000,Weather View 32 v70,2013-01-30 02:09:00,
2013-01-29 20:14:00,55.0,52.5,29.42,West,270,0.0,2.0,91,0.00,,,0.00,0000,Weather View 32 v70,2013-01-30 02:14:00,
2013-01-29 20:20:00,55.2,52.6,29.42,South,180,1.0,2.0,91,0.00,,,0.00,0000,Weather View 32 v70,2013-01-30 02:20:00,
2013-01-29 20:29:00,55.0,52.5,29.41,West,270,0.0,2.0,91,0.00,,,0.00,0000,Weather View 32 v70,2013-01-30 02:29:00,
2013-01-29 20:34:00,54.9,52.3,29.41,SSE,158,0.0,2.0,91,0.00,,,0.00,0000,Weather View 32 v70,2013-01-30 02:34:00,
2013-01-29 20:39:00,54.9,52.3,29.41,SSW,202,0.0,2.0,91,0.00,,,0.00,0000,Weather View 32 v70,2013-01-30 02:39:00,
2013-01-29 20:44:00,54.9,52.3,29.41,NW,315,0.0,2.0,91,0.00,,,0.00,0000,Weather View 32 v70,2013-01-30 02:44:00,
2013-01-29 20:49:00,54.7,52.1,29.41,SSW,202,0.0,1.0,91,0.00,,,0.00,0000,Weather View 32 v70,2013-01-30 02:49:00,
2013-01-29 20:55:00,54.7,52.1,29.41,NW,315,0.0,1.0,91,0.00,,,0.00,0000,Weather View 32 v70,2013-01-30 02:55:00,
2013-01-29 21:04:00,54.9,52.3,29.42,SSE,158,0.0,1.0,91,0.00,,,0.00,0000,Weather View 32 v70,2013-01-30 03:04:00,
2013-01-29 21:09:00,54.9,52.3,29.42,SSW,202,0.0,1.0,91,0.00,,,0.00,0000,Weather View 32 v70,2013-01-30 03:09:00,
2013-01-29 21:14:00,54.9,52.3,29.42,NNW,338,0.0,1.0,91,0.00,,,0.00,0000,Weather View 32 v70,2013-01-30 03:14:00,
2013-01-29 21:19:00,54.7,52.1,29.42,NE,45,1.0,1.0,91,0.00,,,0.00,0000,Weather View 32 v70,2013-01-30 03:19:00,
2013-01-29 21:25:00,54.7,52.1,29.40,South,180,0.0,1.0,91,0.00,,,0.00,0000,Weather View 32 v70,2013-01-30 03:25:00,
2013-01-29 21:34:00,54.5,51.9,29.40,NNE,22,0.0,1.0,91,0.00,,,0.00,0000,Weather View 32 v70,2013-01-30 03:34:00,
2013-01-29 21:39:00,54.5,51.9,29.40,NW,315,0.0,1.0,91,0.00,,,0.00,0000,Weather View 32 v70,2013-01-30 03:39:00,
2013-01-29 21:44:00,54.3,51.7,29.38,ENE,68,0.0,1.0,91,0.00,,,0.00,0000,Weather View 32 v70,2013-01-30 03:44:00,
2013-01-29 21:49:00,54.5,51.9,29.38,ENE,68,0.0,1.0,91,0.00,,,0.00,0000,Weather View 32 v70,2013-01-30 03:49:00,
2013-01-29 21:54:00,54.3,51.7,29.38,ESE,112,0.0,1.0,91,0.00,,,0.00,0000,Weather View 32 v70,2013-01-30 03:54:00,
2013-01-29 22:04:00,54.1,51.6,29.37,NNE,22,0.0,1.0,91,0.00,,,0.00,0000,Weather View 32 v70,2013-01-30 04:04:00,
2013-01-29 22:09:00,54.1,51.6,29.37,North,0,0.0,1.0,91,0.00,,,0.00,0000,Weather View 32 v70,2013-01-30 04:09:00,
2013-01-29 22:14:00,54.1,51.6,29.37,ENE,68,0.0,1.0,91,0.00,,,0.00,0000,Weather View 32 v70,2013-01-30 04:14:00,
2013-01-29 22:19:00,54.0,51.4,29.37,ENE,68,0.0,1.0,91,0.00,,,0.00,0000,Weather View 32 v70,2013-01-30 04:19:00,
2013-01-29 22:24:00,54.1,51.6,29.37,East,90,0.0,0.0,91,0.00,,,0.00,0000,Weather View 32 v70,2013-01-30 04:24:00,
2013-01-29 22:30:00,54.1,51.6,29.35,ENE,68,0.0,0.0,91,0.00,,,0.00,0000,Weather View 32 v70,2013-01-30 04:30:00,
2013-01-29 22:39:00,54.0,51.4,29.35,North,0,0.0,0.0,91,0.00,,,0.00,0000,Weather View 32 v70,2013-01-30 04:39:00,
2013-01-29 22:44:00,54.0,51.4,29.35,North,0,0.0,0.0,91,0.00,,,0.00,0000,Weather View 32 v70,2013-01-30 04:44:00,
2013-01-29 22:49:00,54.1,51.9,29.33,NNW,338,1.0,1.0,92,0.00,,,0.00,0000,Weather View 32 v70,2013-01-30 04:49:00,
2013-01-29 22:54:00,54.0,51.4,29.33,North,0,0.0,1.0,91,0.00,,,0.00,0000,Weather View 32 v70,2013-01-30 04:54:00,
2013-01-29 23:00:00,53.8,51.2,29.33,NNE,22,0.0,1.0,91,0.00,,,0.00,0000,Weather View 32 v70,2013-01-30 05:00:00,
2013-01-29 23:04:00,53.8,51.2,29.32,North,0,0.0,1.0,91,0.00,,,0.00,0000,Weather View 32 v70,2013-01-30 05:04:00,
2013-01-29 23:09:00,53.8,51.5,29.32,NNE,22,0.0,1.0,92,0.03,,,0.03,0000,Weather View 32 v70,2013-01-30 05:09:00,
2013-01-29 23:14:00,53.6,51.0,29.32,SW,225,0.0,1.0,91,0.03,,,0.03,0000,Weather View 32 v70,2013-01-30 05:14:00,
2013-01-29 23:19:00,53.6,51.3,29.32,ENE,68,0.0,1.0,92,0.03,,,0.03,0000,Weather View 32 v70,2013-01-30 05:19:00,
2013-01-29 23:21:00,53.6,51.3,29.32,ENE,68,0.0,1.0,92,0.03,,,0.03,0000,Weather View 32 v70,2013-01-30 05:21:00,
2013-01-29 23:30:00,53.8,51.5,29.31,SSE,158,1.0,1.0,92,0.03,,,0.03,0000,Weather View 32 v70,2013-01-30 05:30:00,
2013-01-29 23:39:00,53.6,51.3,29.31,SSE,158,1.0,1.0,92,0.03,,,0.03,0000,Weather View 32 v70,2013-01-30 05:39:00,
2013-01-29 23:44:00,53.6,51.3,29.34,ENE,68,1.0,1.0,92,0.03,,,0.03,0000,Weather View 32 v70,2013-01-30 05:44:00,
2013-01-29 23:49:00,53.8,51.5,29.34,East,90,2.0,2.0,92,0.03,,,0.03,0000,Weather View 32 v70,2013-01-30 05:49:00,
2013-01-29 23:54:00,53.6,51.0,29.34,East,90,1.0,2.0,91,0.03,,,0.03,0000,Weather View 32 v70,2013-01-30 05:54:00,
2013-01-29 23:59:00,53.4,50.9,29.34,ESE,112,1.0,2.0,91,0.03,,,0.00,0000,Weather View 32 v70,2013-01-30 05:59:00,